Moffett Field, CA

6:18 PM PST on February 09, 2016 (GMT -0800)
Moffett Federal Air Field

Weather History for KNUQ - February, 2007

Change the Weather History Date:

Saturday, February 10, 2007

  Actual Average Record
Temperature  
Mean Temperature 60 °F 53 °F  
Max Temperature 62 °F 61 °F 75 °F (1988)
Min Temperature 55 °F 45 °F 33 °F (1946)
Degree Days  
Heating Degree Days 6    
Month to date heating degree days  
Since 1 July heating degree days  
Cooling Degree Days 0    
Month to date cooling degree days  
Year to date cooling degree days  
Growing Degree Days 10 (Base 50)    
Moisture  
Dew Point 55 °F    
Average Humidity 87    
Maximum Humidity 96    
Minimum Humidity 77    
Precipitation  
Precipitation 0.56 in 0.11 in 1.01 in (1992)
Month to date precipitation 1.04  
Year to date precipitation 3.79  
Sea Level Pressure  
Sea Level Pressure 29.90 in    
Wind  
Wind Speed 8 mph (SE)    
Max Wind Speed 14 mph    
Max Gust Speed 21 mph    
Visibility 8 miles    
Events Rain    
T = Trace of Precipitation, MM = Missing Value Source: NWS Daily Summary

Daily Weather History Graph

Daily Weather History Graph

Search for Another Location

Airport or City:

Trip Planner

Search our weather history database for the weather conditions in past years. The results will help you decide how hot, cold, wet, or windy it might be!

Date:

Astronomy

Feb. 10, 2007 Rise Set
Actual Time 7:03 AM PST 5:42 PM PST
Civil Twilight 6:36 AM PST 6:09 PM PST
Nautical Twilight 6:05 AM PST 6:40 PM PST
Astronomical Twilight 5:34 AM PST 7:10 PM PST
Moon 1:10 AM PST 10:54 AM PST
Length of Visible Light 11h 33m
Length of Day
10h 39m
Last Quarter, 46% of the Moon is Illuminated
Feb 10
Last Quarter
Feb 17
New
Feb 23
First Quarter
Mar 3
Full
Mar 11
Last Quarter

Hourly Weather History & Observations

Time (PST) Temp. Dew Point Humidity Pressure Visibility Wind Dir Wind Speed Gust Speed Precip Events Conditions
12:56 AM 57.9 °F 54.0 °F 87% 30.04 in 9.0 mi SE 5.8 mph - 0.06 in Rain Light Rain
1:56 AM 57.9 °F 54.0 °F 87% 30.02 in 10.0 mi SSE 5.8 mph - 0.00 in Rain Light Rain
2:56 AM 57.0 °F 55.9 °F 96% 30.00 in 6.0 mi SE 6.9 mph - 0.06 in Rain Rain
3:56 AM 57.0 °F 55.0 °F 93% 29.99 in 10.0 mi SE 10.4 mph - 0.05 in Rain Light Rain
4:56 AM 57.0 °F 54.0 °F 89% 29.96 in 10.0 mi SE 8.1 mph - 0.03 in Rain Light Rain
5:56 AM 57.0 °F 54.0 °F 89% 29.95 in 10.0 mi SE 13.8 mph - 0.01 in Rain Light Rain
6:56 AM 57.0 °F 54.0 °F 89% 29.96 in 6.0 mi SE 11.5 mph - 0.08 in Rain Rain
7:56 AM 57.0 °F 55.0 °F 93% 29.96 in 10.0 mi SE 11.5 mph - 0.06 in Rain Light Rain
8:56 AM 57.9 °F 55.9 °F 93% 29.96 in 10.0 mi ESE 12.7 mph - 0.00 in   Overcast
9:56 AM 59.0 °F 53.1 °F 81% 29.96 in 10.0 mi SE 12.7 mph - N/A   Overcast
10:56 AM 60.1 °F 55.0 °F 83% 29.96 in 10.0 mi SE 8.1 mph - N/A   Overcast
11:56 AM 62.1 °F 55.0 °F 78% 29.93 in 10.0 mi SSE 9.2 mph - 0.00 in   Mostly Cloudy
12:56 PM 60.1 °F 55.9 °F 86% 29.90 in 7.0 mi SE 12.7 mph - 0.00 in Rain Light Rain
1:35 PM 62.6 °F 55.4 °F 77% 29.87 in 10.0 mi SE 10.4 mph - 0.00 in Rain Light Rain
1:56 PM 60.1 °F 55.0 °F 83% 29.87 in 7.0 mi SE 11.5 mph 20.7 mph 0.00 in Rain Light Rain
2:20 PM 60.8 °F 55.4 °F 82% 29.85 in 1.8 mi SSE 12.7 mph 19.6 mph 0.04 in Rain Rain
2:31 PM 59.0 °F 55.4 °F 88% 29.85 in 2.5 mi SSE 11.5 mph - 0.05 in Rain Light Rain
2:38 PM 60.8 °F 55.4 °F 82% 29.85 in 5.0 mi SSE 11.5 mph - 0.05 in Rain Light Rain
2:53 PM 60.8 °F 55.4 °F 82% 29.85 in 8.0 mi SE 12.7 mph - 0.06 in Rain Light Rain
2:56 PM 60.1 °F 55.9 °F 86% 29.86 in 10.0 mi SSE 9.2 mph 18.4 mph 0.06 in Rain Light Rain
3:56 PM 60.1 °F 55.0 °F 83% 29.86 in 8.0 mi SSE 8.1 mph - 0.00 in Rain Light Rain
4:09 PM 59.0 °F 55.4 °F 88% 29.85 in 4.0 mi SSE 5.8 mph - 0.02 in Rain Light Rain
4:22 PM 59.0 °F 55.4 °F 88% 29.84 in 7.0 mi SSE 5.8 mph - 0.04 in Rain Light Rain
4:29 PM 59.0 °F 55.4 °F 88% 29.84 in 9.0 mi SE 5.8 mph - 0.04 in Rain Light Rain
4:56 PM 59.0 °F 55.9 °F 90% 29.86 in 8.0 mi SSE 5.8 mph - 0.04 in   Overcast
5:09 PM 59.0 °F 55.4 °F 88% 29.85 in 3.0 mi Calm Calm - 0.01 in Rain Light Rain
5:27 PM 59.0 °F 55.4 °F 88% 29.84 in 10.0 mi SE 6.9 mph - 0.01 in Rain Light Rain
5:56 PM 57.9 °F 55.0 °F 90% 29.85 in 10.0 mi SE 6.9 mph - 0.03 in Rain Light Rain
6:56 PM 57.0 °F 54.0 °F 89% 29.84 in 10.0 mi SE 4.6 mph - 0.01 in   Overcast
7:56 PM 57.9 °F 53.1 °F 84% 29.83 in 10.0 mi SSE 6.9 mph - N/A   Clear
8:56 PM 57.0 °F 53.1 °F 87% 29.84 in 10.0 mi ESE 8.1 mph - N/A   Mostly Cloudy
9:56 PM 57.0 °F 54.0 °F 89% 29.85 in 5.0 mi SSE 8.1 mph - 0.05 in Rain Light Rain
10:56 PM 57.0 °F 53.1 °F 87% 29.86 in 10.0 mi Variable 3.5 mph - 0.01 in   Scattered Clouds
11:56 PM 55.0 °F 53.1 °F 93% 29.85 in 10.0 mi Calm Calm - 0.01 in   Overcast